Tracking 31027 objects as of 19-Jul-2025
HD Live streaming from Space Station
objects crossing your sky now

RIDESHARE ADAPTER

Track RIDESHARE ADAPTER now!
10-day predictions


NORAD ID: 47435
Int'l Code: 2021-006Y
Perigee: 460.1 km
Apogee: 469.8 km
Inclination: 97.3 °
Period: 93.7 minutes
Semi major axis: 6835 km
RCS: Unknown
Launch date: January 24, 2021
Source: United States (US)
Launch site: AIR FORCE EASTERN TEST RANGE (AFETR)
Your satellite tracking list
OBJECT A
Track 1 satellite(s)




NASA's NSSDC Master Catalog

Two Line Element Set (TLE):
1 47435U 21006Y   25199.41442826  .00007832  00000-0  22521-3 0  9994
2 47435  97.2745 251.0597 0007098 292.2650  67.7841 15.36046919248740
Source of the keplerian elements: AFSPC